When you browse on this site, cookies collect data to enhance your experience and personalize the content and advertising you see.
Visit our Privacy Policy to learn more. By continuing to use the site, you agree to this use of cookies and data.
  • In Latvia
  • List of Countries
  • For 7 days
  • Water Temperature
  • Weather Map
  • Weather Widgets
  • user-avatar
    Login

    Hourly Weather Jasienie

    Today, 22 February, Saturday

    Time Temperature Precipitation Wind Pressure Humidity
    00:00 0°C° 0 mm 4 mps 757 mmHg 85%
    01:00 0°C° 0 mm 4 mps 757 mmHg 85%
    02:00 0°C° 0 mm 4 mps 756 mmHg 84%
    03:00 0°C° 0 mm 5 mps 756 mmHg 82%
    04:00 0°C° 0 mm 5 mps 755 mmHg 81%
    05:00 0°C° 0 mm 5 mps 755 mmHg 80%
    06:00 -1°C° 0 mm 6 mps 755 mmHg 79%
    07:00 -1°C° 0 mm 6 mps 755 mmHg 78%
    08:00 0°C° 0 mm 7 mps 754 mmHg 73%
    09:00 +1°C° 0 mm 8 mps 753 mmHg 69%
    10:00 +2°C° 0 mm 9 mps 753 mmHg 64%
    11:00 +3°C° 0 mm 9 mps 752 mmHg 60%
    12:00 +5°C° 0 mm 9 mps 751 mmHg 56%
    13:00 +7°C° 0 mm 9 mps 751 mmHg 52%
    14:00 +7°C° 0 mm 9 mps 750 mmHg 51%
    15:00 +7°C° 0 mm 9 mps 749 mmHg 50%
    16:00 +7°C° 0 mm 9 mps 748 mmHg 48%
    17:00 +7°C° 0 mm 8 mps 748 mmHg 50%
    18:00 +7°C° 0 mm 8 mps 748 mmHg 52%
    19:00 +7°C° 0 mm 8 mps 748 mmHg 54%
    20:00 +7°C° 0 mm 9 mps 748 mmHg 55%
    21:00 +7°C° 0 mm 9 mps 747 mmHg 56%
    22:00 +7°C° 0 mm 10 mps 747 mmHg 57%
    23:00 +7°C° 0.2 mm 9 mps 747 mmHg 63%

    Tomorrow, 23 February, Sunday

    Time Temperature Precipitation Wind Pressure Humidity
    00:00 +6°C° 0.2 mm 9 mps 748 mmHg 69%
    01:00 +6°C° 0.2 mm 9 mps 748 mmHg 75%
    02:00 +5°C° 0.6 mm 8 mps 748 mmHg 73%
    03:00 +4°C° 0.6 mm 8 mps 747 mmHg 71%
    04:00 +4°C° 0.6 mm 8 mps 747 mmHg 68%
    05:00 +2°C° 0.1 mm 8 mps 748 mmHg 69%
    06:00 +2°C° 0.1 mm 8 mps 748 mmHg 70%
    07:00 +3°C° 0.1 mm 7 mps 749 mmHg 70%
    08:00 +2°C° 0.1 mm 8 mps 748 mmHg 72%
    09:00 +2°C° 0.1 mm 9 mps 748 mmHg 73%
    10:00 +2°C° 0.1 mm 9 mps 748 mmHg 74%
    11:00 +2°C° 0.1 mm 8 mps 747 mmHg 76%
    12:00 +2°C° 0.1 mm 8 mps 747 mmHg 78%
    13:00 +3°C° 0.1 mm 7 mps 746 mmHg 80%
    14:00 +3°C° 0.3 mm 6 mps 745 mmHg 84%
    15:00 +3°C° 0.3 mm 6 mps 743 mmHg 88%
    16:00 +3°C° 0.3 mm 5 mps 741 mmHg 91%
    17:00 +3°C° 2.3 mm 4 mps 740 mmHg 93%
    18:00 +3°C° 2.3 mm 3 mps 739 mmHg 95%
    19:00 +4°C° 2.3 mm 2 mps 738 mmHg 96%
    20:00 +3°C° 0.3 mm 3 mps 737 mmHg 95%
    21:00 +3°C° 0.3 mm 4 mps 737 mmHg 94%
    22:00 +2°C° 0.3 mm 5 mps 737 mmHg 93%
    23:00 +1°C° 0.5 mm 6 mps 740 mmHg 93%

    Day after tomorrow, 24 February, Monday

    Time Temperature Precipitation Wind Pressure Humidity
    00:00 0°C° 0.5 mm 8 mps 742 mmHg 92%
    01:00 0°C° 0.5 mm 9 mps 744 mmHg 91%
    02:00 0°C° 0.2 mm 9 mps 744 mmHg 90%
    03:00 0°C° 0.2 mm 8 mps 745 mmHg 89%
    04:00 0°C° 0.2 mm 8 mps 746 mmHg 87%
    05:00 -1°C° 0.1 mm 8 mps 747 mmHg 85%
    06:00 -1°C° 0.1 mm 8 mps 749 mmHg 82%
    07:00 -1°C° 0.1 mm 8 mps 750 mmHg 79%
    08:00 0°C° 0 mm 8 mps 750 mmHg 77%
    09:00 0°C° 0 mm 8 mps 751 mmHg 74%
    10:00 +2°C° 0 mm 7 mps 751 mmHg 72%
    11:00 +2°C° 0 mm 7 mps 751 mmHg 72%
    12:00 +2°C° 0 mm 7 mps 751 mmHg 72%
    13:00 +2°C° 0 mm 6 mps 751 mmHg 72%
    14:00 +3°C° 0 mm 6 mps 751 mmHg 71%
    15:00 +3°C° 0 mm 6 mps 750 mmHg 70%
    16:00 +3°C° 0 mm 5 mps 750 mmHg 68%
    17:00 +4°C° 0 mm 4 mps 749 mmHg 70%
    18:00 +3°C° 0 mm 4 mps 749 mmHg 73%
    19:00 +3°C° 0 mm 3 mps 748 mmHg 75%
    20:00 +3°C° 0 mm 4 mps 747 mmHg 74%
    21:00 +3°C° 0 mm 4 mps 747 mmHg 73%
    22:00 +2°C° 0 mm 5 mps 746 mmHg 72%
    23:00 +2°C° 0.5 mm 6 mps 745 mmHg 76%

    25 February, Tuesday

    Time Temperature Precipitation Wind Pressure Humidity
    00:00 +3°C° 0.5 mm 6 mps 743 mmHg 79%
    01:00 +3°C° 0.5 mm 7 mps 742 mmHg 83%
    02:00 +4°C° 0.4 mm 7 mps 741 mmHg 84%
    03:00 +5°C° 0.4 mm 8 mps 741 mmHg 85%
    04:00 +6°C° 0.4 mm 8 mps 740 mmHg 86%
    05:00 +6°C° 0.2 mm 8 mps 740 mmHg 86%
    06:00 +6°C° 0.2 mm 7 mps 740 mmHg 86%
    07:00 +6°C° 0.2 mm 7 mps 740 mmHg 86%
    08:00 +8°C° 0 mm 7 mps 739 mmHg 81%
    09:00 +9°C° 0 mm 7 mps 739 mmHg 77%
    10:00 +9°C° 0 mm 8 mps 739 mmHg 72%
    11:00 +10°C° 0.1 mm 8 mps 739 mmHg 70%
    12:00 +10°C° 0.1 mm 8 mps 738 mmHg 67%
    13:00 +11°C° 0.1 mm 9 mps 738 mmHg 64%
    14:00 +10°C° 0.1 mm 8 mps 737 mmHg 66%
    15:00 +10°C° 0.1 mm 7 mps 737 mmHg 68%
    16:00 +10°C° 0.1 mm 7 mps 736 mmHg 70%
    17:00 +9°C° 0.7 mm 7 mps 736 mmHg 74%
    18:00 +6°C° 0.7 mm 8 mps 736 mmHg 77%
    19:00 +5°C° 0.7 mm 8 mps 736 mmHg 81%
    20:00 +5°C° 0.5 mm 7 mps 736 mmHg 78%
    21:00 +4°C° 0.5 mm 6 mps 736 mmHg 75%
    22:00 +5°C° 0.5 mm 5 mps 736 mmHg 72%
    23:00 +3°C° 0 mm 5 mps 736 mmHg 73%

    26 February, Wednesday

    Time Temperature Precipitation Wind Pressure Humidity
    00:00 +3°C° 0 mm 5 mps 736 mmHg 73%
    01:00 +3°C° 0 mm 4 mps 736 mmHg 74%
    02:00 +3°C° 0 mm 4 mps 736 mmHg 75%
    03:00 +1°C° 0 mm 4 mps 736 mmHg 77%
    04:00 +1°C° 0 mm 4 mps 736 mmHg 78%
    05:00 +1°C° 0 mm 4 mps 735 mmHg 78%
    06:00 +1°C° 0 mm 4 mps 735 mmHg 78%
    07:00 +1°C° 0 mm 4 mps 735 mmHg 77%
    08:00 +1°C° 0.1 mm 5 mps 735 mmHg 76%
    09:00 +2°C° 0.1 mm 5 mps 735 mmHg 76%
    10:00 +3°C° 0.1 mm 6 mps 735 mmHg 75%
    11:00 +3°C° 0 mm 5 mps 734 mmHg 73%
    12:00 +4°C° 0 mm 4 mps 734 mmHg 71%
    13:00 +4°C° 0 mm 4 mps 734 mmHg 69%
    14:00 +4°C° 0.2 mm 4 mps 734 mmHg 70%
    15:00 +4°C° 0.2 mm 4 mps 734 mmHg 72%
    16:00 +4°C° 0.2 mm 4 mps 734 mmHg 73%
    17:00 +3°C° 0.6 mm 4 mps 734 mmHg 77%
    18:00 +3°C° 0.6 mm 4 mps 735 mmHg 81%
    19:00 +1°C° 0.6 mm 4 mps 735 mmHg 84%
    20:00 +1°C° 0.1 mm 5 mps 736 mmHg 86%
    21:00 0°C° 0.1 mm 5 mps 736 mmHg 88%
    22:00 -1°C° 0.1 mm 6 mps 737 mmHg 90%
    23:00 -1°C° 0 mm 6 mps 737 mmHg 90%

    27 February, Thursday

    Time Temperature Precipitation Wind Pressure Humidity
    00:00 0°C° 0 mm 5 mps 737 mmHg 91%
    01:00 -1°C° 0 mm 5 mps 738 mmHg 91%
    02:00 -1°C° 0 mm 5 mps 739 mmHg 91%
    03:00 -1°C° 0 mm 5 mps 739 mmHg 90%
    04:00 -1°C° 0 mm 5 mps 740 mmHg 90%
    05:00 -2°C° 0 mm 6 mps 740 mmHg 87%
    06:00 -2°C° 0 mm 6 mps 741 mmHg 84%
    07:00 -2°C° 0 mm 7 mps 741 mmHg 81%
    08:00 -2°C° 0 mm 7 mps 742 mmHg 80%
    09:00 -2°C° 0 mm 7 mps 743 mmHg 79%
    10:00 -2°C° 0 mm 7 mps 744 mmHg 78%
    11:00 -2°C° 0 mm 7 mps 744 mmHg 75%
    12:00 -1°C° 0 mm 7 mps 744 mmHg 71%
    13:00 -1°C° 0 mm 6 mps 745 mmHg 67%
    14:00 -1°C° 0 mm 6 mps 745 mmHg 67%
    15:00 -1°C° 0 mm 6 mps 745 mmHg 66%
    16:00 -1°C° 0 mm 6 mps 746 mmHg 65%
    17:00 0°C° 0 mm 5 mps 746 mmHg 69%
    18:00 0°C° 0 mm 3 mps 747 mmHg 73%
    19:00 +1°C° 0 mm 2 mps 747 mmHg 77%
    20:00 -1°C° 0 mm 2 mps 747 mmHg 79%
    21:00 -1°C° 0 mm 2 mps 747 mmHg 82%
    22:00 -1°C° 0 mm 3 mps 747 mmHg 85%
    23:00 -1°C° 0 mm 3 mps 747 mmHg 86%
    Show more